Overview Statistics Trail Chart Weather Telemetry Raw packets
 

This is the latest recevied weather packets stored in our database for station/object OM6ACB-6. If no packets are shown the sender has not sent any weather packets the latest 10 day(s).

<< 49 50 51 52 53 54 55 >>
Time Temp. Humidity Pressure Rain* Wind** Luminosity Snow
1787903426 21.67° C 22% 1024 hPa 0 mm - - -
1787902826 21.11° C 22% 1023.9 hPa 0 mm - - -
1787902225 21.11° C 22% 1023.8 hPa 0 mm - - -
1787901625 21.67° C 22% 1023.9 hPa 0 mm - - -
1787901025 21.11° C 22% 1023.8 hPa 0 mm - - -
1787900425 20° C 23% 1023.7 hPa 0 mm - - -
1787899824 20.56° C 22% 1023.9 hPa 0 mm - - -
1787899224 19.44° C 23% 1014.3 hPa 0 mm - - -
1787898624 18.33° C 23% 1023.7 hPa 0 mm - - -
1787898023 18.89° C 23% 1024.1 hPa 0 mm - - -
1787897423 20.56° C 22% 1024.3 hPa 0 mm - - -
1787896823 19.44° C 23% 1024.2 hPa 0 mm - - -
1787896223 20° C 23% 1024.3 hPa 0 mm - - -
1787895622 18.89° C 23% 1024.2 hPa 0 mm - - -
1787895022 17.78° C 24% 1024.1 hPa 0 mm - - -
1787894422 17.78° C 24% 1023.9 hPa 0 mm - - -
1787893821 15.56° C 25% 1023.7 hPa 0 mm - - -
1787893221 15.56° C 25% 1023.6 hPa 0 mm - - -
1787892621 14.44° C 25% 1023.4 hPa 0 mm - - -
1787892020 13.89° C 26% 1023.3 hPa 0 mm - - -
1787891420 12.78° C 26% 1023.1 hPa 0 mm - - -
1787890820 12.22° C 26% 1022.8 hPa 0 mm - - -
1787890220 11.67° C 32% 1022.7 hPa 0 mm - - -
1787889619 11.67° C 34% 1022.6 hPa 0 mm - - -
1787889019 11.11° C 38% 1022.5 hPa 0 mm - - -

* Rain latest hour (hover to see other rain measurements)
** Current wind speed in m/s (hover to see current wind gust speed)